DW9033 Weather Reports


time (UTC)temp
C
wind
direction
speed
KPH
gust
KPH
rain 1hr
cm
rain 24hr
cm
rain mn
cm
humidity
%
barometer
mb
20260906043059 22 212 0.0 0.0 0.00 0.00 0.00 93 1010.5
20260906041559 22 281 0.0 1.6 0.00 0.00 0.00 94 1010.3
20260906040135 22 279 1.6 4.8 0.00 0.00 0.00 94 1010.6
20260906034610 22 259 0.0 1.6 0.00 0.00 0.00 93 1010.8
20260906033106 22 259 0.0 3.2 0.00 0.00 0.00 93 1011.0
20260906031546 22 248 0.0 1.6 0.00 0.00 0.00 92 1011.0
20260906024550 23 244 0.0 0.0 0.00 0.00 0.00 92 1010.9
20260906023045 23 249 0.0 6.4 0.00 0.00 0.00 92 1010.7
20260906021543 23 127 0.0 3.2 0.00 0.00 0.00 93 1010.3
20260906020042 23 256 0.0 1.6 0.00 0.00 0.00 92 1010.1
20260906014544 23 275 0.0 3.2 0.00 0.00 0.00 92 1010.2
20260906013042 23 341 0.0 1.6 0.00 0.00 0.00 91 1010.2
20260906011542 23 341 0.0 3.2 0.00 0.00 0.00 91 1010.2
20260906010041 23 278 0.0 0.0 0.00 0.00 0.00 90 1010.0
20260906004541 23 278 0.0 1.6 0.00 0.00 0.00 89 1009.7
20260906003040 23 278 0.0 1.6 0.00 0.00 0.00 88 1009.7
20260906001532 24 273 0.0 3.2 0.00 0.00 0.00 87 1009.6
20260906000028 25 19 0.0 0.0 0.00 0.00 0.00 84 1009.3
20260905234527 26 19 0.0 0.0 0.00 0.00 0.00 82 1009.2
20260905233025 26 326 0.0 3.2 0.00 0.00 0.00 79 1009.1
20260905231525 27 192 0.0 1.6 0.00 0.00 0.00 76 1009.2
20260905230024 28 191 0.0 1.6 0.00 0.00 0.00 73 1009.3
20260905224557 28 280 0.0 4.8 0.00 0.00 0.00 70 1009.2
20260905223023 27 188 0.0 3.2 0.00 0.00 0.00 76 1009.2
20260905221505 27 130 0.0 3.2 0.00 0.00 0.00 76 1009.3
20260905220003 26 136 0.0 6.4 0.00 0.00 0.00 78 1009.4
20260905214552 27 99 0.0 4.8 0.00 0.00 0.00 77 1009.5
20260905213055 27 128 1.6 6.4 0.00 0.00 0.00 74 1009.7
20260905211550 27 163 0.0 3.2 0.00 0.00 0.00 73 1009.7
20260905210059 27 77 1.6 4.8 0.00 0.00 0.00 73 1010.0
20260905204549 27 329 0.0 6.4 0.00 0.00 0.00 70 1009.9
20260905203049 26 280 1.6 8.0 0.00 0.00 0.00 73 1009.6
20260905201549 25 267 3.2 8.0 0.00 0.00 0.00 74 1010.1
20260905200048 25 277 3.2 9.7 0.00 0.00 0.00 75 1010.3
20260905193035 24 306 1.6 4.8 0.00 0.00 0.00 83 1009.8
20260905191535 24 68 1.6 12.9 0.00 0.00 0.00 79 1010.7
20260905190034 27 293 4.8 27.4 0.00 0.00 0.00 64 1011.2
20260905184546 31 267 6.4 16.1 0.00 0.00 0.00 63 1010.3
20260905183033 32 266 0.0 3.2 0.00 0.00 0.00 62 1009.8
20260905181532 34 110 0.0 3.2 0.00 0.00 0.00 55 1010.1
20260905180037 35 282 0.0 9.7 0.00 0.00 0.00 52 1010.2
20260905174512 36 311 3.2 9.7 0.00 0.00 0.00 48 1010.0
20260905173010 36 87 0.0 4.8 0.00 0.00 0.00 48 1010.3
20260905171552 36 278 1.6 4.8 0.00 0.00 0.00 49 1010.4
20260905170100 36 65 1.6 4.8 0.00 0.00 0.00 49 1010.6
20260905164532 35 311 1.6 8.0 0.00 0.00 0.00 52 1011.0
20260905163030 35 28 1.6 4.8 0.00 0.00 0.00 51 1011.3
20260905161527 35 331 0.0 4.8 0.00 0.00 0.00 56 1011.3
20260905160025 34 217 1.6 4.8 0.00 0.00 0.00 59 1011.3
20260905154522 34 288 0.0 4.8 0.00 0.00 0.00 59 1011.5
20260905153021 33 161 1.6 9.7 0.00 0.00 0.00 60 1011.6
20260905151521 33 149 0.0 4.8 0.00 0.00 0.00 61 1011.6
20260905150016 32 137 1.6 6.4 0.00 0.00 0.00 62 1011.5
20260905144512 32 115 3.2 6.4 0.00 0.00 0.00 62 1011.6
20260905143001 32 287 0.0 3.2 0.00 0.00 0.00 65 1011.8
20260905141604 31 110 1.6 3.2 0.00 0.00 0.00 67 1011.8
20260905140055 31 145 0.0 4.8 0.00 0.00 0.00 70 1011.9
20260905134554 30 153 0.0 3.2 0.00 0.00 0.00 73 1012.0
20260905133048 29 273 0.0 3.2 0.00 0.00 0.00 75 1012.1
20260905131543 28 192 1.6 4.8 0.00 0.00 0.00 78 1012.2
20260905130039 27 159 0.0 3.2 0.00 0.00 0.00 80 1012.2
20260905124518 26 279 1.6 4.8 0.00 0.00 0.00 82 1012.1
20260905123114 26 279 0.0 3.2 0.00 0.00 0.00 85 1012.0
20260905121559 25 269 1.6 4.8 0.00 0.00 0.00 87 1012.0
20260905120058 24 257 0.0 1.6 0.00 0.00 0.00 91 1011.9
20260905114559 23 254 0.0 4.8 0.00 0.00 0.00 93 1011.8
20260905113049 22 244 0.0 3.2 0.00 0.00 0.00 95 1011.6
20260905111546 22 269 1.6 4.8 0.00 0.00 0.00 96 1011.5
20260905110044 22 273 0.0 0.0 0.00 0.00 0.00 96 1011.1
20260905104545 22 273 0.0 0.0 0.00 0.00 0.00 96 1011.1
20260905103041 22 273 0.0 0.0 0.00 0.00 0.00 96 1010.8
20260905101532 22 273 0.0 1.6 0.00 0.00 0.00 96 1010.8
20260905100058 22 273 0.0 0.0 0.00 0.00 0.00 96 1010.8
20260905094532 22 273 0.0 0.0 0.00 0.00 0.00 96 1010.7
20260905093025 22 273 0.0 0.0 0.00 0.00 0.00 96 1010.7
20260905091524 22 273 0.0 0.0 0.00 0.00 0.00 95 1010.8
20260905090023 22 273 0.0 1.6 0.00 0.00 0.00 95 1010.8
20260905084522 22 273 0.0 0.0 0.00 0.00 0.00 96 1010.8
20260905083020 22 273 0.0 1.6 0.00 0.00 0.00 95 1010.9
20260905081508 22 273 0.0 1.6 0.00 0.00 0.00 95 1011.1
20260905080006 22 273 0.0 0.0 0.00 0.00 0.00 95 1011.3
20260905074505 22 273 0.0 0.0 0.00 0.00 0.00 95 1011.4
20260905073007 22 273 0.0 0.0 0.00 0.00 0.00 94 1011.5
20260905071502 22 273 0.0 0.0 0.00 0.00 0.00 94 1011.6
20260905070002 23 273 0.0 0.0 0.00 0.00 0.00 94 1011.7
20260905064502 23 273 0.0 0.0 0.00 0.00 0.00 93 1011.8
20260905063104 23 273 0.0 0.0 0.00 0.00 0.00 93 1012.0
20260905061700 23 273 0.0 0.0 0.00 0.00 0.00 93 1011.8
20260905060100 23 273 0.0 0.0 0.00 0.00 0.00 92 1011.9
20260905054637 23 273 0.0 1.6 0.00 0.00 0.00 92 1012.2
20260905053048 23 273 0.0 1.6 0.00 0.00 0.00 93 1012.4
20260905051547 23 273 0.0 0.0 0.00 0.00 0.00 92 1012.4
20260905050049 24 273 0.0 0.0 0.00 0.00 0.00 91 1012.5
20260905044646 24 273 0.0 0.0 0.00 0.00 0.00 90 1012.3